Time,TemperatureF,DewpointF,PressureIn,WindDirection,WindDirectionDegrees,WindSpeedMPH,WindSpeedGustMPH,Humidity,HourlyPrecipIn,Conditions,Clouds,dailyrainin,SolarRadiationWatts/m^2,SoftwareType,DateUTC
2013-02-09 00:01:00,36.0,23.0,-100.00,ENE,78,7.0,17.0,58,0.00,,,0.05,0.000000,,2013-02-09 08:01:00,
2013-02-09 00:11:00,36.0,23.0,-100.00,ENE,78,7.0,17.0,58,0.00,,,0.05,0.000000,,2013-02-09 08:11:00,
2013-02-09 00:21:00,36.0,23.0,-100.00,ENE,78,7.0,17.0,58,0.00,,,0.05,0.000000,,2013-02-09 08:21:00,
2013-02-09 00:52:00,33.0,20.0,-100.00,NNE,21,4.0,25.0,58,0.00,,,0.05,0.000000,,2013-02-09 08:52:00,
2013-02-09 01:02:00,33.0,20.0,-100.00,NNE,21,4.0,25.0,58,0.00,,,0.05,0.000000,,2013-02-09 09:02:00,
2013-02-09 01:11:00,33.0,20.0,-100.00,NNE,21,4.0,25.0,58,0.00,,,0.05,0.000000,,2013-02-09 09:11:00,
2013-02-09 01:21:00,33.0,20.0,-100.00,NNE,21,4.0,25.0,58,0.00,,,0.05,0.000000,,2013-02-09 09:21:00,
2013-02-09 01:52:00,33.0,20.0,-100.00,SSW,211,3.0,9.0,59,0.00,,,0.05,0.000000,,2013-02-09 09:52:00,
2013-02-09 02:01:00,33.0,20.0,-100.00,SSW,211,3.0,9.0,59,0.00,,,0.05,0.000000,,2013-02-09 10:01:00,
2013-02-09 02:11:00,33.0,20.0,-100.00,SSW,211,3.0,9.0,59,0.00,,,0.05,0.000000,,2013-02-09 10:11:00,
2013-02-09 02:21:00,33.0,20.0,-100.00,SSW,211,3.0,9.0,59,0.00,,,0.05,0.000000,,2013-02-09 10:21:00,
2013-02-09 02:52:00,34.0,21.0,-100.00,WSW,251,4.0,13.0,58,0.00,,,0.05,0.000000,,2013-02-09 10:52:00,
2013-02-09 03:01:00,34.0,21.0,-100.00,WSW,251,4.0,13.0,58,0.00,,,0.05,0.000000,,2013-02-09 11:01:00,
2013-02-09 03:11:00,34.0,21.0,-100.00,WSW,251,4.0,13.0,58,0.00,,,0.05,0.000000,,2013-02-09 11:11:00,
2013-02-09 03:21:00,34.0,21.0,-100.00,WSW,251,4.0,13.0,58,0.00,,,0.05,0.000000,,2013-02-09 11:21:00,
2013-02-09 03:52:00,34.0,21.0,-100.00,East,95,2.0,9.0,58,0.00,,,0.05,0.000000,,2013-02-09 11:52:00,
2013-02-09 04:02:00,34.0,21.0,-100.00,East,95,2.0,9.0,58,0.00,,,0.05,0.000000,,2013-02-09 12:02:00,
2013-02-09 04:11:00,34.0,21.0,-100.00,East,95,2.0,9.0,58,0.00,,,0.05,0.000000,,2013-02-09 12:11:00,
2013-02-09 04:21:00,34.0,21.0,-100.00,East,95,2.0,9.0,58,0.00,,,0.05,0.000000,,2013-02-09 12:21:00,
2013-02-09 04:52:00,34.0,21.0,-100.00,ESE,108,4.0,7.0,58,0.00,,,0.05,0.000000,,2013-02-09 12:52:00,
2013-02-09 05:02:00,34.0,21.0,-100.00,ESE,108,4.0,7.0,58,0.00,,,0.05,0.000000,,2013-02-09 13:02:00,
2013-02-09 05:11:00,34.0,21.0,-100.00,ESE,108,4.0,7.0,58,0.00,,,0.05,0.000000,,2013-02-09 13:11:00,
2013-02-09 05:21:00,34.0,21.0,-100.00,ESE,108,4.0,7.0,58,0.00,,,0.05,0.000000,,2013-02-09 13:21:00,
2013-02-09 05:52:00,34.0,21.0,-100.00,NNE,19,5.0,11.0,59,0.00,,,0.05,0.000000,,2013-02-09 13:52:00,
2013-02-09 06:01:00,34.0,21.0,-100.00,NNE,19,5.0,11.0,59,0.00,,,0.05,0.000000,,2013-02-09 14:01:00,
2013-02-09 06:11:00,34.0,21.0,-100.00,NNE,19,5.0,11.0,59,0.00,,,0.05,0.000000,,2013-02-09 14:11:00,
2013-02-09 06:21:00,34.0,21.0,-100.00,NNE,19,5.0,11.0,59,0.00,,,0.05,0.000000,,2013-02-09 14:21:00,
2013-02-09 06:52:00,33.0,20.0,-100.00,North,0,3.0,11.0,59,0.00,,,0.05,0.000000,,2013-02-09 14:52:00,
2013-02-09 07:01:00,33.0,20.0,-100.00,North,0,3.0,11.0,59,0.00,,,0.05,0.000000,,2013-02-09 15:01:00,
2013-02-09 07:11:00,33.0,20.0,-100.00,North,0,3.0,11.0,59,0.00,,,0.05,0.000000,,2013-02-09 15:11:00,
2013-02-09 07:21:00,33.0,20.0,-100.00,North,0,3.0,11.0,59,0.00,,,0.05,0.000000,,2013-02-09 15:21:00,
2013-02-09 07:52:00,32.0,19.0,-100.00,NNE,16,9.0,14.0,59,0.00,,,0.05,8.000000,,2013-02-09 15:52:00,
2013-02-09 08:01:00,32.0,19.0,-100.00,NNE,16,9.0,14.0,59,0.00,,,0.05,8.000000,,2013-02-09 16:01:00,
2013-02-09 08:11:00,32.0,19.0,-100.00,NNE,16,9.0,14.0,59,0.00,,,0.05,8.000000,,2013-02-09 16:11:00,
2013-02-09 08:21:00,32.0,19.0,-100.00,NNE,16,9.0,14.0,59,0.00,,,0.05,8.000000,,2013-02-09 16:21:00,
2013-02-09 08:52:00,41.0,19.0,-100.00,West,269,3.0,14.0,41,0.00,,,0.05,153.000000,,2013-02-09 16:52:00,
2013-02-09 09:01:00,41.0,19.0,-100.00,West,269,3.0,14.0,41,0.00,,,0.05,153.000000,,2013-02-09 17:01:00,
2013-02-09 09:11:00,41.0,19.0,-100.00,West,269,3.0,14.0,41,0.00,,,0.05,153.000000,,2013-02-09 17:11:00,
2013-02-09 09:21:00,41.0,19.0,-100.00,West,269,3.0,14.0,41,0.00,,,0.05,153.000000,,2013-02-09 17:21:00,
2013-02-09 09:52:00,43.0,14.0,-100.00,North,2,8.0,19.0,30,0.00,,,0.05,414.000000,,2013-02-09 17:52:00,
2013-02-09 10:01:00,43.0,14.0,-100.00,North,2,8.0,19.0,30,0.00,,,0.05,414.000000,,2013-02-09 18:01:00,
2013-02-09 10:52:00,48.0,15.0,-100.00,NW,305,4.0,17.0,26,0.00,,,0.05,593.000000,,2013-02-09 18:52:00,
2013-02-09 11:01:00,48.0,15.0,-100.00,NW,305,4.0,17.0,26,0.00,,,0.05,593.000000,,2013-02-09 19:01:00,
2013-02-09 11:52:00,49.0,25.0,-100.00,SW,234,8.0,19.0,39,0.00,,,0.05,717.000000,,2013-02-09 19:52:00,
2013-02-09 12:01:00,49.0,25.0,-100.00,SW,234,8.0,19.0,39,0.00,,,0.05,717.000000,,2013-02-09 20:01:00,
2013-02-09 12:11:00,49.0,25.0,-100.00,SW,234,8.0,19.0,39,0.00,,,0.05,717.000000,,2013-02-09 20:11:00,
2013-02-09 12:21:00,49.0,25.0,-100.00,SW,234,8.0,19.0,39,0.00,,,0.05,717.000000,,2013-02-09 20:21:00,
2013-02-09 12:52:00,50.0,24.0,-100.00,SW,229,7.0,17.0,36,0.00,,,0.04,772.000000,,2013-02-09 20:52:00,
2013-02-09 13:01:00,50.0,24.0,-100.00,SW,229,7.0,17.0,36,0.00,,,0.04,772.000000,,2013-02-09 21:01:00,
2013-02-09 13:11:00,50.0,24.0,-100.00,SW,229,7.0,17.0,36,0.00,,,0.04,772.000000,,2013-02-09 21:11:00,
2013-02-09 13:21:00,50.0,24.0,-100.00,SW,229,7.0,17.0,36,0.00,,,0.04,772.000000,,2013-02-09 21:21:00,
2013-02-09 13:52:00,49.0,23.0,-100.00,SSW,213,6.0,17.0,35,0.00,,,0.03,761.000000,,2013-02-09 21:52:00,
2013-02-09 14:01:00,49.0,23.0,-100.00,SSW,213,6.0,17.0,35,0.00,,,0.03,761.000000,,2013-02-09 22:01:00,
2013-02-09 14:11:00,49.0,23.0,-100.00,SSW,213,6.0,17.0,35,0.00,,,0.03,761.000000,,2013-02-09 22:11:00,
2013-02-09 14:21:00,49.0,23.0,-100.00,SSW,213,6.0,17.0,35,0.00,,,0.03,761.000000,,2013-02-09 22:21:00,
2013-02-09 14:52:00,51.0,27.0,-100.00,SW,222,7.0,18.0,39,0.00,,,0.02,680.000000,,2013-02-09 22:52:00,
2013-02-09 15:01:00,51.0,27.0,-100.00,SW,222,7.0,18.0,39,0.00,,,0.02,680.000000,,2013-02-09 23:01:00,
2013-02-09 15:11:00,51.0,27.0,-100.00,SW,222,7.0,18.0,39,0.00,,,0.02,680.000000,,2013-02-09 23:11:00,
2013-02-09 15:21:00,51.0,27.0,-100.00,SW,222,7.0,18.0,39,0.00,,,0.02,680.000000,,2013-02-09 23:21:00,
2013-02-09 15:52:00,50.0,26.0,-100.00,SW,236,9.0,18.0,39,0.00,,,0.00,534.000000,,2013-02-09 23:52:00,
2013-02-09 16:02:00,50.0,26.0,-100.00,SW,236,9.0,18.0,39,0.00,,,0.00,534.000000,,2013-02-10 00:02:00,
2013-02-09 16:11:00,50.0,26.0,-100.00,SW,236,9.0,18.0,39,0.00,,,0.00,534.000000,,2013-02-10 00:11:00,
2013-02-09 16:21:00,50.0,26.0,-100.00,SW,236,9.0,18.0,39,0.00,,,0.00,534.000000,,2013-02-10 00:21:00,
2013-02-09 16:52:00,47.0,26.0,-100.00,WSW,246,7.0,13.0,44,0.00,,,0.00,308.000000,,2013-02-10 00:52:00,
2013-02-09 17:01:00,47.0,26.0,-100.00,WSW,246,7.0,13.0,44,0.00,,,0.00,308.000000,,2013-02-10 01:01:00,
2013-02-09 17:11:00,47.0,26.0,-100.00,WSW,246,7.0,13.0,44,0.00,,,0.00,308.000000,,2013-02-10 01:11:00,
2013-02-09 17:21:00,47.0,26.0,-100.00,WSW,246,7.0,13.0,44,0.00,,,0.00,308.000000,,2013-02-10 01:21:00,
2013-02-09 17:52:00,40.0,26.0,-100.00,SW,229,7.0,14.0,57,0.00,,,0.00,24.000000,,2013-02-10 01:52:00,
2013-02-09 18:01:00,40.0,26.0,-100.00,SW,229,7.0,14.0,57,0.00,,,0.00,24.000000,,2013-02-10 02:01:00,
2013-02-09 18:11:00,40.0,26.0,-100.00,SW,229,7.0,14.0,57,0.00,,,0.00,24.000000,,2013-02-10 02:11:00,
2013-02-09 18:22:00,40.0,26.0,-100.00,SW,229,7.0,14.0,57,0.00,,,0.00,24.000000,,2013-02-10 02:22:00,
2013-02-09 18:52:00,32.0,19.0,-100.00,South,178,2.0,9.0,58,0.00,,,0.00,2.000000,,2013-02-10 02:52:00,
2013-02-09 19:01:00,32.0,19.0,-100.00,South,178,2.0,9.0,58,0.00,,,0.00,2.000000,,2013-02-10 03:01:00,
2013-02-09 19:52:00,30.0,17.0,-100.00,WNW,301,1.0,5.0,59,0.00,,,0.00,0.000000,,2013-02-10 03:52:00,
2013-02-09 20:01:00,30.0,17.0,-100.00,WNW,301,1.0,5.0,59,0.00,,,0.00,0.000000,,2013-02-10 04:01:00,
2013-02-09 20:52:00,28.0,16.0,-100.00,SSW,195,1.0,4.0,60,0.00,,,0.00,0.000000,,2013-02-10 04:52:00,
2013-02-09 21:01:00,28.0,16.0,-100.00,SSW,195,1.0,4.0,60,0.00,,,0.00,0.000000,,2013-02-10 05:01:00,
2013-02-09 21:52:00,25.0,13.0,-100.00,WNW,283,1.0,4.0,60,0.00,,,0.00,0.000000,,2013-02-10 05:52:00,
2013-02-09 22:01:00,25.0,13.0,-100.00,WNW,283,1.0,4.0,60,0.00,,,0.00,0.000000,,2013-02-10 06:01:00,
2013-02-09 22:52:00,23.0,11.0,-100.00,ENE,59,1.0,3.0,60,0.00,,,0.00,0.000000,,2013-02-10 06:52:00,
2013-02-09 23:01:00,23.0,11.0,-100.00,ENE,59,1.0,3.0,60,0.00,,,0.00,0.000000,,2013-02-10 07:01:00,
2013-02-09 23:52:00,22.0,11.0,-100.00,West,278,1.0,2.0,61,0.00,,,0.00,0.000000,,2013-02-10 07:52:00,